OTC-P1-8

operational
NORAD ID: 63358 Int'l Des: 2025-061 Owner: ORORA Country: D
LEOCIRCULARRETROGRADESSO

About OTC-P1-8

Description loading...

Live Position

Loading 3D Globe...

Upcoming Passes

Altitude History

Altitude vs Time

uPlot chart will show altitude changes over time

Two-Line Element Set

1 63358U 25061H 25315.20428677 .00007890 00000-0 46161-3 0 9996
2 63358 97.5390 287.9845 0015800 292.9652 66.9911 15.12019389 34651
Epoch: Nov 11, 2025 • Age: 16 hours

Current Status

Altitude 531.0 km
Velocity 7.60 km/s
Sub-Earth Point 13.64°N, 77.13°W
Launch Date Mar 26, 2025
Age 0.6 years
Type other

Technical Details

Classification Payload
Mass 15.00 kg
Dry Mass 15.00 kg
Total Mass 15.00 kg
Length 0.30 m
Diameter 0.20 m
Span 0.40 m
Shape Box+2 pan
Manufacturer SPIREG
Bus Type Cubesat 6U
Phase Status In Orbit
Owner/State ORORA/D

Large Constellations

Loading constellations...